sat.trackr.live / text

‹ back to catalog

STARLINK-11335 [DTC]

NORAD 61687 · 2024-195A

PAYLOAD ACTIVE UNKNOWN

§ Identity

Operator
Country
US
Launch date
2024-10-30
Launch site
AFWTR
Launch vehicle
Mass (kg)
RCS (m²)

Purposes: comms

External: N2YO · Heavens-Above · Gunter

§ Orbital elements

Epoch: 2026-05-24T22:22:46.589952Z

Period
91.74 min
Inclination
53.1595°
Eccentricity
0.0000858
Mean motion
15.69709127 rev/d
Perigee alt
359.2 km
Apogee alt
360.3 km
Semi-major
6,737.9 km
B*
4.4278e-6
RAAN
10.7636°
Arg perigee
92.5973°
Mean anomaly
267.5143°
Rev number
9,100

§ Raw data

STARLINK-11335 [DTC]1 61687U 24195A   26144.93248368 -.00000052  00000+0  44278-5 0  99962 61687  53.1595  10.7636 0000858  92.5973 267.5143 15.69709127 91002

JSON: /api/v1/satellites/61687 · /tle

For live sub-satellite position, see the globe view (requires WebGL).

§ Visibility from observer

Set your observer location to see the next 7 days of passes ≥ 10°. The values pass through the URL so the page stays shareable.

No JS? Fill the form by hand. The geolocation button needs JavaScript.